Regional Weather Roundup
Issued by NWS Charleston, SC

Current Version | Previous Version | Text Only | Print | Product List | Glossary Off
Versions: 1 2 3 4 5 6 7 8 9 10 11 12 13 14 15 16 17 18 19 20 21 22 23 24 25 26 27 28 29 30 31 32 33 34 35 36 37 38 39 40 41 42 43 44 45 46 47 48 49 50

739
ASUS42 KCHS 232342
RWRCHS

REGIONAL WEATHER ROUNDUP
NATIONAL WEATHER SERVICE CHARLESTON SC
700 PM EDT SAT SEP 23 2017

NOTE: "FAIR" INDICATES FEW OR NO CLOUDS BELOW 12,000 FEET WITH NO
SIGNIFICANT WEATHER AND/OR OBSTRUCTIONS TO VISIBILITY.

NOT ALL STATIONS ARE QUALITY CONTROLLED. USE DATA WITH CAUTION...
ESPECIALLY DEWPOINT OBSERVATIONS.

SCZ027-030-031-034>040-042>050-240000-
...SOUTHEAST SOUTH CAROLINA...

CITY           SKY/WX    TMP DP  RH WIND       PRES   REMARKS
N CHARLESTON   PTCLDY    80  66  62 E8        29.99S
WATERFRONT PRK   N/A     83  71  66 E8        29.84R
JOHNS ISLAND   FAIR      79  70  73 E7        30.00S
PINOPOLIS        N/A     82  70  65 VRB2      29.93R
MONCKS CORNER  FAIR      77  64  65 CALM      30.00S
SUMMERVILLE    FAIR      81  70  69 SE3       30.00S
BEAUFORT MCAS  CLEAR     81  71  71 E8        29.99R
BEAUFORT ARPT  FAIR      79  70  73 E7        29.99R
HILTON HEAD IS CLEAR     81  73  78 E8        30.00R
WALTERBORO     CLEAR     79  70  73 SE3       30.00S
ALLENDALE      NOT AVBL

...SOUTHERN MIDLANDS AND PEE DEE...

CITY           SKY/WX    TMP DP  RH WIND       PRES   REMARKS
GEORGETOWN     FAIR      77  70  78 E5        30.01S
KINGSTREE      FAIR      73  70  88 CALM      30.00R
ORANGEBURG     CLEAR     82  66  58 E3        30.00R
BARNWELL       FAIR      84  68  58 E5        30.00R
AIKEN          FAIR      79  64  61 E5        30.04S
MANNING        FAIR      77  70  78 MISG      30.00R
COLUMBIA       PTCLDY    85  62  46 E7        29.99R
SUMTER         CLEAR     83  61  48 E6        29.98S
FLORENCE       CLEAR     82  63  52 E7        30.01R
MYRTLE BEACH   MOCLDY    79  71  76 E7        30.02S
N MYRTLE BEACH PTCLDY    80  70  71 E7        30.01R

$$

GAZ063-065-086>088-099>101-113>116-118-119-134>141-150-240000-
...SOUTHEAST GEORGIA...

CITY           SKY/WX    TMP DP  RH WIND       PRES   REMARKS
SAVANNAH ARPT  PTCLDY    81  68  64 E10       29.99R
HUNTER AAF     CLEAR     80  71  74 E12       29.96S
FORT STEWART   CLEAR     80  67  64 E9        29.96R
STATESBORO     CLEAR     80  65  61 CALM      29.98S
SYLVANIA       CLEAR     78  73  85 CALM      30.00S
CLAXTON        FAIR      78  73  84 CALM      29.99R

...CSRA...CENTRAL AND FAR SOUTHEAST GEORGIA...

CITY           SKY/WX    TMP DP  RH WIND       PRES   REMARKS
THOMSON        CLEAR     78  69  73 CALM      30.05R
AUGUSTA-BUSH   PTCLDY    85  67  54 SE3       29.98R
AUGUSTA-DANIEL PTCLDY    86  64  47 NE7       30.00S
SWAINSBORO     FAIR      79  72  78 CALM      30.00R
VIDALIA        CLEAR     81  70  69 SE5       29.99R
EASTMAN        MOCLDY    85  56  36 SE6       30.00R
HAZLEHURST     FAIR      78  69  73 CALM      29.97R
ALMA           CLEAR     79  69  71 E3        29.97R
WAYCROSS       PTCLDY    78  70  75 E6        29.97R
JESUP          NOT AVBL
BAXLEY         FAIR      73  73 100 CALM      29.98R
BRUNSWICK      PTCLDY    79  70  73 NE12G18   29.97F
SAINT SIMONS   MOCLDY    80  72  76 NE13      29.96S

$$

SCZ027-028-034-036>038-045-046-048>050-GAZ119-141-240000-
...LAKE AND SUPPLEMENTAL COASTAL OBSERVATIONS...

STATION/POSITION TIME  TEMP    WIND        PRES    WAVE   SWELL
                       AIR SEA DIR/SP/G            HT/PER HT/PER/DIR
                 (UTC) (F)     (DEG/KT/KT) (MB)    (FT/S) (FT/S/D)
WINYAH BAY       2245   80     100/  5     1016.0S
LAKE MURRAY      2320   84      CALM  /  1 1014.9S
ACE BASIN NERRS  2245   81      90/  2     1015.0S
FORT PULASKI     2300   80 81   80/ 13/ 15 1015.9
SAPELO ISLAND    2300   79        CALM     1015.0

$$

ANZ835-935-AMZ111-154-330-350-352-354-370-450-454-472-240000-
...C-MAN AND BUOY OBSERVATIONS...

STATION/POSITION TIME  TEMP    WIND        PRES    WAVE   SWELL
                       AIR SEA DIR/SP/G            HT/PER HT/PER/DIR
                 (UTC) (F)     (DEG/KT/KT) (MB)    (FT/S) (FT/S/D)
BUOY 41004       2310   81 82   60/ 14/ 17 1014.7
BUOY 41008       2250   80 81   70/ 17/ 19 1014.2S   6/14   3/150/14
FOLLY BEACH CMAN 2300   80      70/ 11/ 13 1016.4R
CAPERS NEARSHORE NOT AVBL
FRIPP NEARSHORE  2308   80      70/ 14/ 17 1019.6F


STATION/POSITION TIME  TEMP    WIND        PRES    WAVE   SWELL
                       AIR SEA DIR/SP/G            HT/PER HT/PER/DIR
                 (UTC) (F)     (DEG/KT/KT) (MB)    (FT/S) (FT/S/D)
5E ST. MARYS GA  2300      82                N/A     5/17   3/120/17
FRYING PAN BUOY  2310   80 82   60/ 12/ 14 1015.6
BUOY 41025       2250   75 76   30/ 12/ 16 1016.6R   7/14   7/150/14
CAPE LOOKOUT NC  2300   77      70/  9/ 10 1016.5R
BUOY 41002       2250   79 80   60/ 19/ 25 1013.3R  12/14  10/140/14
BUOY 41010       2310           50/ 17/ 21 1012.6
ST AUGUSTINE FL  2300   81 83   50/ 18/ 20 1013.2R


$$




USA.gov is the U.S. government's official web portal to all federal, state and local government web resources and services.